Temperature
24 23 22 23 23 23 22 22 21 21 22 22 21 21 21 21 20 20 20 20 20 20 20 19 19 19 19 19 18 18 18 17 17 17 16 16 16 16 16 16 16 16 16 16
23 22 23 24 23 23 22 21 21 21 22 22 21 21 21 21 21 20 20 20 20 20 20 19 19 19 19 18 18 18 18 17 17 17 16 16 16 16 16 16 16 16 16 16
23 23 24 24 23 23 22 21 21 21 21 22 21 20 21 21 21 21 21 21 21 20 20 19 19 19 19 18 18 18 18 17 17 17 16 16 16 16 16 16 16 16 16 16
24 24 24 23 23 23 21 22 22 21 21 20 21 20 20 21 21 21 21 21 21 21 20 20 19 19 19 19 18 18 18 17 17 17 16 16 16 16 16 16 16 16 16 16
23 24 23 23 23 23 22 23 22 22 21 21 21 21 21 21 21 21 21 21 21 21 21 20 20 19 19 19 18 18 18 18 17 17 17 16 16 16 16 16 16 16 16 16
24 24 24 23 23 23 23 22 22 22 21 20 22 22 21 22 22 22 22 22 21 21 21 20 20 19 19 18 18 18 18 17 17 17 17 16 16 16 16 16 16 16 15 15
23 24 24 24 23 23 22 21 20 20 20 21 23 22 22 24 24 23 23 22 21 21 21 20 19 19 19 18 18 18 17 17 17 17 17 16 16 16 16 16 16 16 15 15
22 22 23 24 23 23 22 22 20 20 21 22 23 22 24 25 25 24 23 22 22 21 21 20 19 19 19 18 18 18 17 17 17 17 17 17 16 16 16 16 16 16 16 16
23 23 24 24 24 24 23 22 23 22 23 22 23 24 24 25 25 24 24 23 22 21 21 20 20 19 19 18 18 18 17 17 17 17 17 17 16 16 16 16 16 16 16 16
25 23 24 24 24 24 24 24 23 22 21 21 23 23 23 24 24 24 24 23 22 22 21 20 20 19 19 18 18 18 17 17 17 17 17 17 16 16 16 16 16 16 16 16
25 24 23 24 23 24 24 24 24 23 23 21 21 22 25 24 25 24 24 23 23 22 21 20 20 19 18 18 18 18 17 17 17 17 17 17 16 16 16 16 16 16 16 16
25 24 23 24 25 25 25 24 24 22 22 22 22 22 25 25 25 25 24 23 23 22 21 20 20 19 18 18 18 18 17 17 17 17 17 17 16 16 16 16 16 16 16 16
25 24 23 23 23 24 24 25 25 24 23 23 22 22 26 25 25 24 24 23 22 22 21 20 20 19 19 18 18 18 17 17 17 17 17 17 16 16 16 16 16 16 16 16
25 25 24 22 23 24 24 24 25 24 23 23 23 23 24 25 24 24 23 23 22 21 21 20 20 19 18 18 18 18 18 17 17 17 17 17 16 16 16 16 16 16 16 16
25 24 25 25 25 25 25 25 25 24 24 23 24 24 24 25 24 24 24 23 22 21 21 20 20 19 18 18 18 18 18 17 17 17 17 17 16 16 16 16 16 16 16 15
25 25 25 25 26 25 25 25 25 25 25 25 24 24 25 25 25 24 24 23 22 21 21 20 20 19 19 18 18 18 18 17 17 17 17 17 16 16 16 16 16 16 15 15
25 25 24 24 25 25 24 25 25 25 25 25 24 25 25 25 25 24 24 23 22 22 21 20 20 19 19 19 18 18 18 17 17 17 17 17 16 16 16 16 16 15 15 15
25 24 24 24 24 22 25 27 26 25 25 26 25 25 25 25 24 24 23 23 22 22 21 21 20 20 19 19 19 18 18 17 17 17 17 16 16 16 16 16 16 15 15 15
26 24 24 23 23 23 25 26 26 25 25 26 25 25 25 25 24 24 23 23 22 22 21 21 20 20 20 19 19 18 18 18 17 17 17 17 17 16 16 16 16 15 15 15
25 25 24 23 22 22 25 26 26 26 24 26 26 25 25 25 23 23 23 22 22 21 21 21 20 20 20 20 19 19 18 18 17 17 17 16 16 16 16 16 15 15 15 15
23 23 23 22 23 24 25 26 26 24 24 25 26 25 25 24 24 23 22 22 21 21 20 20 20 20 20 19 19 18 18 17 17 17 16 16 16 16 16 16 15 15 15 14
24 23 23 23 22 23 25 26 25 25 26 26 25 25 25 24 23 23 22 21 21 20 20 20 20 19 19 19 19 18 18 17 17 17 16 16 16 16 16 15 15 15 14 14
25 24 24 24 23 25 25 25 25 25 25 25 25 24 24 23 23 22 21 21 20 20 20 19 19 19 19 18 18 18 18 17 17 17 16 16 16 16 15 15 15 14 14 14
25 26 25 24 24 25 25 25 25 24 24 24 24 24 23 23 22 21 21 20 20 19 19 19 19 19 18 18 18 18 17 17 17 16 16 16 16 15 15 15 14 14 14 14
23 24 24 24 25 25 24 24 24 24 24 23 23 23 23 22 22 21 21 20 19 19 19 19 18 18 18 17 17 17 17 17 16 16 16 15 15 15 15 14 14 14 14 14
24 24 23 23 24 24 24 23 23 23 23 23 23 22 22 22 21 21 20 20 19 19 18 18 18 18 17 17 17 17 16 16 16 15 15 15 15 14 14 14 14 13 13 13
Wind_Speed
3 2 2 1 2 2 3 3 3 4 4 3 5 7 9 9 8 9 9 9 10 10 9 8 7 6 6 5 7 7 6 5 5 3 3 3 3 3 3 4 7 7 8 8
1 1 2 2 1 4 5 4 4 4 3 2 5 6 8 9 9 9 9 9 10 11 10 9 8 6 6 5 5 7 6 6 5 2 2 2 2 3 3 3 5 6 7 7
1 2 3 2 2 3 3 4 4 4 2 3 4 5 7 10 9 9 8 9 9 11 12 11 9 7 6 6 6 6 7 7 6 4 2 3 2 2 2 2 2 4 7 7
1 2 2 2 2 2 1 2 4 5 4 3 5 3 8 11 11 11 10 9 9 10 11 10 9 8 7 6 6 6 6 7 6 5 2 2 2 2 2 2 2 3 5 5
1 2 1 2 1 1 2 2 2 4 3 4 6 4 6 12 13 14 13 12 10 10 11 11 9 8 7 7 5 5 6 6 6 5 3 1 2 2 2 2 3 3 3 4
2 3 1 1 1 2 3 3 4 3 3 4 7 5 4 9 14 15 15 14 12 11 11 10 9 7 6 6 5 5 6 5 4 4 4 2 2 3 3 2 2 2 2 2
3 4 4 3 2 4 4 2 1 2 3 3 4 3 3 8 11 14 15 14 13 12 12 11 10 9 8 8 7 6 6 5 4 3 3 3 3 3 2 2 1 1 2 2
3 4 5 4 3 3 5 4 2 1 2 2 4 3 3 6 7 10 12 13 13 13 13 12 11 10 9 9 8 7 7 5 5 4 3 3 4 2 1 1 2 1 2 2
2 3 6 5 4 3 3 4 4 4 4 2 3 5 7 7 7 8 11 13 13 12 12 12 11 11 10 9 8 8 8 6 5 4 3 3 3 2 2 1 2 2 2 2
2 1 5 6 5 7 5 5 3 3 2 1 1 3 4 8 8 9 10 11 13 13 12 12 12 11 10 9 8 8 8 7 6 5 3 3 3 3 2 1 2 2 2 2
5 3 4 6 6 5 5 5 4 3 2 1 1 2 4 4 6 7 9 10 11 12 12 12 11 10 10 9 9 8 7 6 6 5 4 4 3 3 3 2 2 1 2 2
5 3 4 6 4 3 5 5 4 3 3 1 0 1 2 5 6 6 7 9 10 11 11 11 11 10 10 10 9 9 8 7 6 5 5 5 4 4 3 3 2 2 3 2
3 3 3 2 3 5 6 5 4 5 4 2 0 2 3 5 6 6 6 8 9 10 11 10 10 10 9 9 9 9 8 7 7 6 6 5 5 4 3 3 3 2 2 2
4 6 5 4 3 5 6 6 6 6 3 2 0 3 2 5 6 6 7 8 9 10 10 10 9 10 9 9 9 9 8 7 7 6 5 5 5 4 3 3 3 2 2 2
6 8 7 5 4 4 6 6 7 7 6 4 2 1 0 4 6 6 7 9 10 10 10 10 9 10 9 9 8 8 8 8 8 7 6 5 5 4 4 4 3 2 2 2
8 7 7 6 6 5 6 7 8 8 7 6 4 2 2 4 5 6 7 9 10 10 10 10 10 10 10 10 9 9 8 8 8 8 6 5 5 4 4 4 3 3 2 1
8 8 7 6 6 7 8 8 8 7 6 5 4 1 2 3 4 5 6 7 9 9 9 10 10 10 10 10 10 9 9 8 8 8 7 6 5 5 5 4 3 3 3 2
8 7 6 6 6 7 4 2 3 4 5 4 2 1 2 3 5 4 5 6 7 8 8 8 9 9 9 9 9 9 9 8 8 7 7 6 6 5 5 4 4 3 3 3
8 7 5 5 7 6 5 4 4 4 4 3 3 4 3 5 6 4 5 5 5 6 7 6 7 8 9 9 9 9 9 8 7 7 7 6 6 6 6 5 4 3 3 3
10 8 7 6 7 6 3 3 3 2 4 2 3 3 4 5 4 4 6 6 6 6 6 6 5 5 7 7 8 9 8 7 7 7 6 6 6 6 6 6 5 4 3 4
12 10 10 9 8 5 1 4 4 3 1 3 3 2 3 3 2 6 8 7 6 6 6 6 5 5 5 6 8 8 7 7 7 6 6 6 6 6 6 5 4 4 4 4
11 9 10 9 9 5 3 5 3 1 2 2 3 2 3 4 6 7 8 7 6 6 7 6 6 5 5 5 6 7 6 6 6 6 6 6 6 6 6 5 4 4 4 4
9 7 4 4 3 2 1 1 1 1 1 1 2 3 4 5 6 7 7 7 7 6 6 6 6 6 5 5 5 5 5 5 7 7 6 6 6 5 5 5 5 4 4 3
7 7 6 6 5 4 3 3 1 1 1 2 3 3 3 5 6 7 7 7 7 6 6 6 6 6 5 5 5 5 5 5 6 7 6 5 5 5 4 3 3 3 3 3
5 5 7 7 4 3 4 3 2 2 1 1 2 2 3 4 5 6 7 7 6 6 6 6 6 5 5 5 5 5 5 5 5 6 5 5 4 5 4 3 2 3 2 4
7 6 6 5 4 3 2 4 3 3 2 2 2 2 3 3 4 6 6 6 6 7 6 6 6 5 5 5 5 4 4 4 5 5 5 4 4 4 4 4 2 2 2 3
Wind_Direction
195 204 207 222 193 206 144 156 140 129 146 178 164 159 162 167 172 171 171 176 173 165 160 154 151 152 144 134 124 122 127 111 97 74 76 78 65 58 52 52 41 38 38 36
165 97 59 72 161 160 143 144 137 118 138 177 159 167 169 175 184 183 180 181 174 165 159 151 153 159 153 145 133 136 130 122 115 106 113 110 97 85 78 54 40 38 40 32
145 98 102 132 153 138 144 163 160 148 175 200 169 179 186 182 185 191 191 185 177 169 166 163 166 162 163 157 150 142 136 131 128 121 88 88 75 81 95 85 51 44 49 32
148 125 137 139 123 120 124 147 163 171 186 209 209 200 197 190 189 193 195 189 186 175 165 162 167 165 168 156 152 148 144 137 130 124 112 123 124 107 101 114 113 83 64 52
181 133 161 166 118 79 127 163 196 200 229 245 222 228 195 184 194 195 195 193 188 176 167 167 168 165 166 151 152 143 128 118 119 126 125 106 90 96 93 94 95 88 60 59
198 159 183 146 130 150 160 218 240 233 252 256 222 214 190 188 197 193 192 191 186 180 170 168 163 158 156 143 137 120 115 107 109 124 136 141 104 96 96 90 98 108 93 63
184 157 154 170 179 173 198 220 248 209 217 236 198 194 196 186 185 185 185 186 183 181 174 171 168 166 158 150 147 142 136 138 142 160 167 157 139 137 141 139 119 102 106 88
199 177 175 189 224 212 216 224 259 288 240 205 179 185 140 139 153 168 172 176 179 181 176 174 168 164 160 158 158 159 154 153 159 178 180 155 142 141 124 102 116 100 96 95
225 166 160 184 232 252 244 237 260 285 281 260 176 136 129 138 149 159 167 172 177 178 171 166 163 162 161 163 163 162 158 162 171 185 172 144 131 122 120 134 108 100 104 110
274 205 176 176 219 229 254 280 276 280 321 311 173 135 145 154 161 166 168 171 175 173 170 166 164 164 165 166 165 164 164 168 171 177 165 140 132 131 135 148 110 117 112 103
245 229 192 189 214 221 222 244 268 272 276 316 31 49 90 138 150 161 165 166 168 169 168 164 162 163 163 164 163 162 166 169 165 171 158 145 152 147 151 152 133 132 125 160
235 243 224 208 185 229 244 258 273 298 314 303 55 73 148 133 135 145 151 157 161 162 162 161 161 161 161 167 168 168 172 170 166 170 158 159 162 161 168 166 165 177 162 171
257 250 230 194 187 207 228 236 262 278 277 285 204 158 140 114 117 129 137 144 151 153 157 159 160 162 165 169 171 172 171 169 167 167 166 163 158 168 180 170 172 187 168 177
268 259 247 239 236 207 221 224 241 264 273 286 275 136 153 121 117 126 139 145 147 151 156 159 161 163 165 170 171 171 168 165 161 163 163 163 166 170 173 163 167 182 179 165
243 261 269 266 257 233 231 232 236 246 262 275 311 73 176 133 129 135 141 144 149 155 160 162 163 165 166 171 172 169 165 164 162 162 168 173 170 163 163 157 164 175 171 156
235 256 266 262 254 241 240 232 233 237 248 260 268 285 108 119 123 132 141 151 157 163 167 166 168 168 172 175 175 169 165 167 163 165 172 172 166 160 164 159 156 160 150 151
226 244 260 263 255 248 239 230 226 231 239 250 254 253 113 128 135 135 140 153 163 167 168 169 172 173 174 177 175 169 169 169 167 167 168 167 166 164 159 157 160 164 158 149
236 249 258 259 259 256 242 191 202 225 238 249 248 203 170 143 126 126 139 153 159 161 164 168 173 172 173 176 171 168 166 167 167 166 166 165 164 163 159 163 170 171 167 172
242 248 257 257 259 262 247 202 190 217 231 227 228 204 181 152 144 144 136 136 138 143 152 161 171 169 169 170 167 165 167 167 166 166 169 170 167 165 165 170 174 172 178 185
228 238 248 249 254 258 238 153 140 223 236 191 184 178 171 167 173 156 136 129 131 132 138 146 152 154 159 160 155 159 163 164 166 164 168 166 163 164 169 173 175 172 183 192
211 223 233 245 252 255 190 138 152 219 199 135 142 154 168 172 131 124 124 123 126 129 130 135 137 133 139 144 149 155 160 167 165 159 158 156 157 163 165 169 174 172 179 185
218 217 226 233 241 235 172 170 193 94 74 118 128 129 132 112 114 119 121 124 129 132 132 132 129 123 124 130 143 151 158 160 153 150 151 156 159 164 168 166 172 172 175 185
227 225 227 229 223 169 162 162 193 10 356 57 94 109 129 136 138 130 128 130 132 134 134 134 133 133 133 135 140 146 145 143 147 148 153 158 156 154 153 158 167 172 176 181
241 231 231 235 216 198 194 202 169 73 17 47 69 97 141 152 148 137 134 135 136 137 136 137 138 141 139 135 135 139 138 139 143 150 154 154 154 153 154 152 160 163 173 183
244 242 245 245 238 213 195 181 173 161 148 100 98 121 147 152 153 150 145 142 138 131 133 139 142 139 142 137 131 131 138 147 154 154 153 155 154 153 149 136 138 163 174 181
245 239 239 251 249 250 211 173 177 173 171 162 146 141 147 155 154 152 146 138 134 135 135 133 128 131 137 132 128 127 137 153 159 159 159 158 154 151 147 143 125 83 128 142
Height
1501 1503 1507 1504 1503 1506 1508 1512 1516 1517 1515 1516 1519 1522 1523 1525 1527 1530 1532 1534 1537 1540 1542 1545 1547 1549 1550 1552 1553 1554 1556 1557 1557 1558 1558 1558 1558 1558 1558 1557 1557 1556 1556 1556
1503 1506 1502 1502 1503 1505 1508 1514 1518 1517 1515 1517 1520 1522 1522 1524 1526 1528 1530 1532 1535 1538 1541 1544 1546 1548 1550 1552 1554 1555 1556 1557 1557 1558 1559 1559 1559 1559 1558 1558 1558 1557 1557 1557
1505 1504 1502 1503 1505 1507 1510 1514 1516 1519 1517 1515 1520 1525 1523 1523 1525 1527 1529 1531 1533 1536 1539 1543 1546 1548 1550 1552 1554 1555 1556 1557 1558 1558 1559 1559 1559 1559 1560 1559 1559 1559 1558 1558
1502 1501 1502 1504 1506 1508 1515 1510 1512 1515 1520 1523 1521 1532 1524 1520 1522 1524 1526 1529 1531 1534 1537 1541 1544 1547 1549 1551 1553 1555 1556 1557 1558 1558 1559 1560 1560 1560 1561 1560 1560 1560 1559 1559
1504 1502 1504 1507 1507 1507 1511 1509 1510 1512 1517 1521 1518 1524 1521 1516 1520 1520 1522 1526 1529 1532 1535 1539 1542 1545 1548 1550 1552 1554 1556 1557 1558 1558 1559 1560 1560 1561 1561 1561 1561 1561 1560 1560
1501 1502 1504 1505 1505 1506 1508 1511 1511 1512 1518 1528 1516 1520 1521 1512 1511 1513 1517 1522 1526 1530 1533 1537 1540 1544 1546 1549 1551 1553 1555 1556 1557 1558 1559 1560 1561 1561 1562 1562 1562 1562 1561 1561
1504 1502 1503 1505 1507 1508 1510 1518 1529 1531 1532 1526 1506 1513 1513 1500 1500 1506 1512 1517 1522 1526 1531 1535 1538 1541 1544 1547 1550 1552 1554 1555 1557 1558 1559 1560 1560 1561 1562 1562 1562 1562 1562 1561
1509 1513 1503 1503 1505 1508 1509 1514 1529 1536 1531 1519 1507 1512 1503 1495 1498 1502 1508 1513 1518 1523 1527 1531 1535 1539 1542 1545 1548 1550 1553 1554 1556 1557 1559 1560 1560 1561 1562 1562 1562 1562 1562 1562
1503 1508 1500 1501 1502 1503 1508 1510 1505 1514 1512 1517 1509 1503 1499 1495 1498 1502 1506 1511 1515 1520 1524 1528 1533 1537 1540 1543 1546 1548 1551 1553 1555 1556 1558 1559 1560 1560 1561 1562 1562 1562 1562 1562
1494 1505 1500 1500 1502 1501 1502 1502 1506 1514 1524 1528 1515 1508 1507 1501 1500 1501 1504 1508 1513 1517 1522 1526 1530 1534 1538 1541 1544 1547 1549 1551 1553 1555 1557 1558 1559 1560 1560 1561 1562 1562 1562 1562
1492 1501 1503 1500 1502 1502 1502 1503 1503 1506 1510 1524 1529 1520 1496 1497 1497 1499 1502 1506 1510 1515 1519 1524 1528 1532 1536 1539 1542 1545 1548 1550 1552 1554 1555 1556 1558 1559 1559 1560 1561 1561 1561 1561
1490 1495 1503 1499 1494 1494 1496 1498 1502 1513 1514 1511 1519 1520 1493 1493 1495 1498 1501 1505 1509 1513 1517 1522 1526 1530 1534 1537 1540 1543 1546 1549 1550 1552 1554 1555 1556 1558 1558 1559 1560 1560 1561 1561
1490 1495 1508 1510 1506 1499 1497 1496 1497 1500 1504 1510 1519 1517 1492 1493 1495 1498 1501 1504 1508 1512 1516 1520 1524 1528 1531 1535 1538 1541 1544 1546 1549 1551 1552 1554 1555 1556 1557 1558 1559 1559 1560 1560
1491 1492 1501 1511 1505 1496 1497 1496 1496 1500 1508 1510 1507 1505 1496 1494 1495 1498 1501 1504 1507 1511 1515 1519 1523 1526 1529 1533 1536 1539 1542 1544 1546 1549 1550 1552 1553 1555 1556 1557 1557 1558 1559 1559
1489 1492 1489 1488 1487 1488 1492 1493 1494 1497 1499 1504 1502 1499 1495 1493 1495 1497 1500 1503 1507 1511 1514 1517 1521 1524 1527 1530 1534 1537 1539 1542 1544 1546 1548 1550 1552 1553 1554 1555 1556 1556 1557 1558
1486 1490 1489 1490 1486 1486 1490 1490 1491 1493 1493 1494 1496 1497 1490 1492 1494 1497 1499 1502 1506 1509 1512 1516 1519 1522 1525 1528 1531 1534 1537 1540 1542 1544 1546 1548 1550 1551 1552 1553 1554 1555 1555 1556
1485 1488 1493 1495 1487 1488 1495 1487 1487 1488 1487 1490 1495 1493 1489 1492 1494 1496 1499 1501 1504 1507 1510 1513 1516 1520 1523 1526 1529 1532 1535 1538 1540 1542 1544 1546 1547 1549 1550 1551 1552 1553 1553 1554
1483 1486 1489 1493 1494 1507 1490 1476 1479 1483 1485 1485 1487 1488 1489 1491 1494 1496 1498 1500 1503 1505 1508 1511 1515 1518 1521 1524 1527 1530 1533 1535 1537 1539 1541 1543 1545 1546 1547 1549 1549 1550 1551 1552
1478 1485 1490 1494 1499 1495 1482 1475 1478 1483 1486 1482 1484 1486 1488 1490 1493 1496 1498 1499 1501 1504 1506 1509 1513 1516 1519 1521 1524 1527 1530 1532 1535 1537 1539 1541 1542 1544 1545 1546 1547 1548 1549 1550
1477 1480 1488 1493 1500 1502 1485 1474 1476 1481 1489 1481 1482 1484 1487 1489 1494 1496 1496 1498 1500 1502 1505 1508 1511 1514 1516 1519 1522 1525 1527 1530 1532 1534 1536 1538 1540 1541 1542 1543 1545 1546 1546 1547
1481 1483 1488 1492 1494 1486 1476 1474 1478 1492 1489 1480 1481 1483 1485 1488 1491 1493 1495 1497 1499 1501 1504 1506 1509 1512 1514 1517 1520 1522 1525 1527 1530 1532 1534 1536 1537 1539 1540 1541 1542 1543 1544 1545
1475 1481 1483 1484 1491 1490 1474 1475 1479 1481 1478 1479 1481 1483 1485 1487 1490 1492 1494 1496 1498 1500 1503 1505 1508 1510 1513 1515 1518 1520 1522 1525 1527 1529 1531 1533 1535 1536 1538 1539 1540 1541 1542 1542
1466 1469 1471 1475 1479 1473 1472 1474 1476 1477 1478 1479 1480 1483 1485 1487 1490 1492 1494 1495 1497 1500 1502 1504 1507 1509 1512 1514 1516 1518 1521 1523 1525 1527 1529 1531 1532 1534 1535 1536 1537 1538 1539 1540
1461 1461 1465 1468 1468 1469 1471 1473 1475 1476 1478 1479 1481 1483 1484 1486 1489 1491 1493 1495 1497 1499 1501 1503 1506 1508 1510 1512 1515 1517 1519 1521 1523 1525 1527 1528 1530 1531 1533 1534 1535 1535 1536 1537
1461 1462 1463 1465 1465 1467 1469 1472 1474 1476 1477 1479 1480 1482 1484 1485 1488 1490 1492 1494 1496 1498 1500 1502 1504 1506 1509 1511 1513 1515 1517 1519 1521 1523 1524 1526 1527 1528 1530 1531 1532 1533 1534 1534
1458 1460 1464 1465 1465 1466 1468 1470 1472 1474 1476 1478 1480 1481 1483 1484 1486 1488 1491 1493 1495 1497 1499 1501 1503 1505 1507 1509 1511 1513 1515 1517 1519 1520 1522 1523 1524 1526 1527 1528 1529 1530 1531 1532